Weather History for Lander, WY

Change the Weather History Date:

Saturday, January 4, 2014

  Actual Average Record
Temperature  
Mean Temperature 13 °F 21 °F  
Max Temperature 21 °F 33 °F 56 °F (1927)
Min Temperature 5 °F 10 °F -30 °F (1959)
Degree Days  
Heating Degree Days 52 44  
Month to date heating degree days 166 176  
Since 1 July heating degree days 3439 3422  
Cooling Degree Days 0 0  
Month to date cooling degree days 0 0  
Year to date cooling degree days 0 0  
Moisture  
Dew Point 14 °F    
Average Humidity 87    
Maximum Humidity 100    
Minimum Humidity 74    
Precipitation  
Precipitation 0.32 in 0.01 in 0.56 in (1963)
Month to date precipitation 0.46 0.06  
Year to date precipitation 0.46 0.06  
Snow  
Snow 5.30 in 0.30 in - ()
Month to date snowfall 6.9 1.1  
Since 1 July snowfall 49.5 36.8  
Snow Depth 6.00 in    
Sea Level Pressure  
Sea Level Pressure 30.01 in    
Wind  
Wind Speed 4 mph (SSE)    
Max Wind Speed 10 mph    
Max Gust Speed 12 mph    
Visibility 5 miles    
Events Fog , Snow    
T = Trace of Precipitation, MM = Missing Value Source: NWS Daily Summary

Daily Weather History Graph

Daily Weather History Graph

Search for Another Location

Airport:

Trip Planner

Search our weather history database for the weather conditions in past years. The results will help you decide how hot, cold, wet, or windy it might be!

Date:

Astronomy

Jan. 04, 2014 Rise Set
Actual Time 7:45 AM MST 4:54 PM MST
Civil Twilight 7:13 AM MST 5:26 PM MST
Nautical Twilight 6:38 AM MST 6:01 PM MST
Astronomical Twilight 6:03 AM MST 6:36 PM MST
Moon 9:47 AM MST (1/4) 9:24 PM MST (1/4)
Length of Visible Light 10h 12m
Length of Day
9h 08m
Waxing Crescent, 16% of the Moon is Illuminated
Jan 4
Waxing Crescent
Jan 7
First Quarter
Jan 15
Full
Jan 23
Last Quarter
Jan 30
New

Hourly Weather History & Observations

Time (MST) Temp. Windchill Dew Point Humidity Pressure Visibility Wind Dir Wind Speed Gust Speed Precip Events Conditions
12:53 AM 21.0 °F 16.2 °F 18.0 °F 88% 29.87 in 0.5 mi Variable 3.5 mph - 0.08 in Fog , Snow Snow
1:53 AM 19.9 °F - 18.0 °F 92% 29.87 in 0.5 mi Calm Calm - 0.08 in Fog , Snow Snow
2:12 AM 19.9 °F 14.9 °F 19.0 °F 96% 29.84 in 0.8 mi WSW 3.5 mph - 0.01 in Snow Light Snow
2:41 AM 19.9 °F 11.1 °F 19.0 °F 96% 29.85 in 0.5 mi NW 6.9 mph - 0.03 in Fog , Snow Snow
2:53 AM 19.9 °F 10.1 °F 18.0 °F 92% 29.91 in 0.5 mi West 8.1 mph - 0.04 in Fog , Snow Snow
3:53 AM 19.0 °F 12.3 °F 18.0 °F 96% 29.93 in 0.5 mi NW 4.6 mph - 0.05 in Fog , Snow Snow
4:33 AM 19.0 °F 12.3 °F 17.1 °F 92% 29.88 in 1.0 mi East 4.6 mph - 0.04 in Snow Light Snow
4:53 AM 19.0 °F 13.9 °F 17.1 °F 92% 29.95 in 1.2 mi East 3.5 mph - 0.04 in Snow Light Snow
5:34 AM 18.0 °F 12.7 °F 17.1 °F 96% 29.88 in 2.5 mi SE 3.5 mph - 0.01 in Snow Light Snow
5:53 AM 18.0 °F 12.7 °F 16.0 °F 92% 29.97 in 2.5 mi South 3.5 mph - 0.01 in Snow Light Snow
6:06 AM 18.0 °F 11.1 °F 16.0 °F 92% 29.89 in 3.0 mi SSW 4.6 mph - 0.00 in Snow Light Snow
6:21 AM 18.0 °F - 16.0 °F 92% 29.90 in 2.5 mi Calm Calm - 0.00 in Snow Light Snow
6:53 AM 18.0 °F - 16.0 °F 92% 29.99 in 2.5 mi Calm Calm - 0.01 in Snow Light Snow
7:06 AM 18.0 °F 12.7 °F 16.0 °F 92% 29.90 in 1.8 mi SE 3.5 mph - 0.00 in Snow Light Snow
7:36 AM 17.1 °F 10.0 °F 15.1 °F 92% 29.91 in 2.5 mi SE 4.6 mph - 0.00 in Snow Light Snow
7:46 AM 16.0 °F 8.8 °F 15.1 °F 96% 29.91 in 2.5 mi SE 4.6 mph - 0.00 in Snow Light Snow
7:53 AM 16.0 °F 10.4 °F 15.1 °F 96% 30.04 in 3.0 mi ESE 3.5 mph - 0.00 in Snow Light Snow
8:04 AM 17.1 °F 10.0 °F 15.1 °F 92% 29.92 in 1.8 mi ESE 4.6 mph - 0.00 in Snow Light Snow
8:13 AM 16.0 °F 10.4 °F 15.1 °F 96% 29.92 in 0.8 mi SSE 3.5 mph - 0.00 in Snow Light Snow
8:43 AM 17.1 °F 11.7 °F 15.1 °F 92% 29.93 in 1.2 mi South 3.5 mph - 0.01 in Snow Light Snow
8:53 AM 18.0 °F - 15.1 °F 88% 30.06 in 1.0 mi Calm Calm - 0.01 in Snow Light Snow
9:11 AM 18.0 °F - 16.0 °F 92% 29.94 in 2.5 mi Calm Calm - 0.00 in Snow Light Snow
9:35 AM 17.1 °F - 16.0 °F 96% 29.95 in 4.0 mi Calm Calm - 0.00 in   Overcast
9:53 AM 17.1 °F - 15.1 °F 92% 30.10 in 6.0 mi Calm Calm - 0.00 in   Scattered Clouds
10:53 AM 18.0 °F 12.7 °F 14.0 °F 84% 30.13 in 10.0 mi ENE 3.5 mph - N/A   Partly Cloudy
11:53 AM 19.0 °F - 16.0 °F 88% 30.11 in 8.0 mi Calm Calm - N/A   Overcast
12:53 PM 18.0 °F 9.8 °F 14.0 °F 84% 30.09 in 10.0 mi East 5.8 mph - N/A   Partly Cloudy
1:53 PM 18.0 °F 8.7 °F 12.9 °F 81% 30.09 in 10.0 mi SE 6.9 mph - N/A   Clear
2:53 PM 17.1 °F 10.0 °F 10.9 °F 77% 30.10 in 10.0 mi West 4.6 mph - N/A   Partly Cloudy
3:53 PM 18.0 °F 12.7 °F 10.0 °F 71% 30.11 in 10.0 mi SE 3.5 mph - N/A   Overcast
4:53 PM 18.0 °F - 10.9 °F 74% 30.11 in 10.0 mi Calm Calm - N/A   Overcast
5:53 PM 15.1 °F 4.2 °F 10.9 °F 84% 30.13 in 9.0 mi NW 8.1 mph - N/A   Unknown
6:53 PM 14.0 °F 8.2 °F 8.1 °F 77% 30.15 in 10.0 mi SE 3.5 mph - N/A   Overcast
7:53 PM 12.0 °F 4.1 °F 8.1 °F 84% 30.18 in 10.0 mi SSW 4.6 mph - N/A   Mostly Cloudy
8:53 PM 10.9 °F -1.8 °F 7.0 °F 84% 30.19 in 10.0 mi NNE 9.2 mph - N/A   Mostly Cloudy
9:53 PM 10.9 °F 4.7 °F 6.1 °F 81% 30.20 in 10.0 mi North 3.5 mph - N/A   Clear
10:53 PM 6.1 °F -6.8 °F 1.9 °F 83% 30.23 in 10.0 mi West 8.1 mph - N/A   Clear
11:53 PM 6.1 °F -4.3 °F -0.0 °F 76% 30.22 in 10.0 mi WSW 5.8 mph - N/A   Clear